Preview of NWS' New Version of Forecast
This preview is not operational and should not be used for support decisions.
Latest weather observations around

Joplin, Joplin Regional Airport (KJLN)

Using English Units (Switch to International System of Units)
Date/ Time (CST) Wind (mph) Vis. (mi) Weather Sky Cond. Temp (°F) Rel. Humidity Wind Chill (°F) Heat Index (°F) Pressure Precip. (in)
Air Dwpt 6 hour Altimeter (inHg) Sea level (inHg) 1 hr 3 hr 6 hr
Max Min
Dec 16 23:53 Calm 10 Clear CLR 32 28     85%     30.28 30.29      
Dec 16 22:53 Calm 5 Haze CLR 33 28     82%     30.29 30.29      
Dec 16 21:53 Calm 10 Clear CLR 34 29     82%     30.28 30.29      
Dec 16 20:53 Calm 10 Clear CLR 37 30     76%     30.28 30.3      
Dec 16 19:53 Calm 10 Clear CLR 39 30     70%     30.27 30.29      
Dec 16 18:53 Calm 10 Clear CLR 44 31     60%     30.26 30.28      
Dec 16 17:53 Calm 10 Clear CLR 49 30     48%     30.25 30.26      
Dec 16 16:53 Calm 10 Clear CLR 51 32     48%     30.24 30.25      
Dec 16 15:53 Calm 10 Clear CLR 58 31     36%     30.22 30.22      
Dec 16 14:53 NW 7 10 Clear CLR 58 33     39%     30.23 30.24      
Dec 16 13:53 NW 9 10 Clear CLR 58 37     46%     30.23 30.23      
Dec 16 12:53 NNW 5 10 Clear CLR 58 37     46%     30.22 30.22      
Dec 16 11:53 6 10 Clear CLR 56 37     49%     30.23 30.24      
Dec 16 10:53 S 6 10 Clear CLR 52 38     59%     30.26 30.27      
Dec 16 09:53 S 3 10 Clear CLR 43 34     70% 41   30.27 30.29      
Dec 16 08:53 SSE 3 10 Clear CLR 33 29     85% 30   30.26 30.28      
Dec 16 07:53 Calm 9 Clear CLR 30 27     88%     30.26 30.28      
Dec 16 06:53 N 7 10 Clear CLR 30 26     85% 23   30.25 30.27      
Dec 16 05:53 S 3 10 Clear CLR 34 27     75% 31   30.21 30.23      
Dec 16 04:53 Calm 10 Clear CLR 33 28     82%     30.21 30.22      
Dec 16 03:53 SSE 3 10 Clear CLR 32 28     85% 29   30.22 30.23      
Dec 16 02:53 SE 3 7 Clear   30 27     88% 27   30.22 30.23      
Dec 16 01:53 SSE 3 7 Clear CLR 30 27     88% 27   30.23 30.24      
Dec 16 00:53 ESE 3 7 Clear CLR 30 27     88% 27   30.22 30.24      
Dec 15 23:53 Calm 9 Clear CLR 32 27     81%     30.23 30.24      
Dec 15 22:53 NW 5 10 Clear CLR 30 26     85% 25   30.22 30.24      
Dec 15 21:53 SSE 3 10 Clear CLR 31 27     85% 28   30.2 30.22      
Dec 15 20:53 Calm 10 Clear CLR 34 29     82%     30.19 30.21      
Dec 15 19:53 Calm 10 Clear   34 29     82%     30.18 30.2      
Dec 15 18:53 Calm 10 Clear CLR 40 30     67%     30.16 30.18      
Dec 15 17:53 NW 6 10 Clear CLR 44 31     60% 41   30.17 30.18      
Dec 15 16:53 N 6 10 Clear CLR 47 32     56% 44   30.14 30.16      
Dec 15 15:53 NNW 7 10 Clear CLR 53 35     50%     30.13 30.14      
Dec 15 14:53 NW 8 10 Clear CLR 53 35     50%     30.12 30.13      
Dec 15 13:53 NNW 8 10 Clear CLR 52 34     50%     30.12 30.13      
Dec 15 12:53 N 7 10 Clear CLR 50 32     50%     30.13 30.14      
Dec 15 11:53 N 9 10 Clear CLR 46 30     53% 41   30.15 30.16      
Dec 15 10:53 N 11 10 Clear CLR 42 27     55% 36   30.17 30.18      
Dec 15 09:53 N 11 10 Clear CLR 38 24     57% 30   30.18 30.2      
Dec 15 08:53 N 14 10 Clear CLR 34 21     59% 25   30.16 30.17      
Dec 15 07:53 N 9 10 Clear CLR 29 21     72% 20   30.15 30.17      
Dec 15 06:53 N 11 10 Clear CLR 30 21     69% 21   30.14 30.15      
Dec 15 05:53 N 9 10 Clear CLR 29 22     75% 20   30.13 30.14      
Dec 15 04:53 N 10 10 Clear CLR 30 24     78% 21   30.11 30.13      
Dec 15 03:53 N 10 10 Clear CLR 30 25     81% 21   30.11 30.12      
Dec 15 02:53 N 9 10 Clear CLR 30 27     88% 22   30.1 30.12      
Dec 15 01:53 N 8 9 Clear CLR 31 29     92% 23   30.1 30.11      
Dec 15 00:53 N 8 8 Partly Cloudy SCT011 32 30     92% 25   30.09 30.11      
Dec 14 23:53 N 11 9 Mostly Cloudy BKN010 34 31     88% 26   30.09 30.1      
Dec 14 23:48 N 13 8 Mostly Cloudy BKN010 34 30     86% 25   30.09        
Dec 14 22:53 N 15 9 Clear CLR 34 31     88% 24   30.1 30.12      
Dec 14 21:53 N 13 9 Clear CLR 35 32     88% 26   30.12 30.14      
Dec 14 20:53 N 14 6 Fog/Mist FEW017 36 33     89% 27   30.13 30.14      
Dec 14 19:53 N 11 6 Fog/Mist CLR 36 34     92% 28   30.11 30.13      
Dec 14 19:35 NNE 8 6 Fog/Mist FEW009 36 35     96% 30   30.12        
Dec 14 18:59 N 14 7 Mostly Cloudy SCT007 SCT012 BKN019 38 36     92% 30   30.14        
Dec 14 18:53 N 13 7 Cloudy OVC003 39 36     89% 31   30.14 30.15      
Dec 14 17:53 N 14 3 Fog/Mist OVC003 38 37     97% 30   30.13 30.14      
Dec 14 17:15 N 15 1 Fog/Mist OVC003 38 37     97% 29   30.12        
Dec 14 16:53   2 Fog/Mist OVC003 38 38     100%     30.12 30.13      
Dec 14 16:02 N 13 3 Fog/Mist OVC004 38 37     97% 30   30.11        
Dec 14 15:55 N 13 2 Fog/Mist OVC005 38 37     97% 30   30.11        
Dec 14 15:53 N 15 1 Fog/Mist OVC004 38 37     97% 29   30.11 30.13      
Dec 14 14:53   1 Fog/Mist OVC004 38 37     97%     30.1 30.11      
Dec 14 14:34 N 16 1 Fog/Mist OVC004 38 37     97% 29   30.09        
Dec 14 13:53 NNE 14 3 Fog/Mist OVC004 39 38     96% 31   30.09 30.1      
Dec 14 13:35 NNE 14 2.5 Fog/Mist OVC005 39 38     96% 31   30.08        
Dec 14 12:55 N 14 3 Fog/Mist OVC005 39 38     96% 31   30.08        
Dec 14 12:53 N 11 3 Fog/Mist OVC004 39 38     96% 32   30.08 30.09      
Dec 14 11:53 N 16 2 Fog/Mist OVC004 39 38     96% 30   30.09 30.1     0
Dec 14 11:36 NNE 16 2 Fog/Mist OVC004 39 37     93% 30   30.1        
Dec 14 10:53 N 16 0.75 Fog/Mist OVC003 38 37     97% 29   30.11 30.12      
Dec 14 09:53 N 16 0.75 Fog/Mist OVC002 37 37     100% 28   30.11 30.12 0    
Dec 14 08:53 N 15 0.75 Light Rain and Fog/Mist OVC002 37 36     96% 28   30.11 30.12 0 0  
Dec 14 08:38 N 10 1 Light Rain and Fog/Mist OVC002 37 36     96% 30   30.1   0    
Dec 14 07:57 N 16 2 Fog/Mist OVC002 37 36     96% 28   30.09        
Dec 14 07:53 N 17 3 Fog/Mist OVC005 37 36     96% 27   30.09 30.1      
Dec 14 06:53 N 16 3 Fog/Mist OVC005 37 36     96% 28   30.06 30.07      
Dec 14 05:53 N 14 4 Fog/Mist OVC005 38 37     97% 30   30.05 30.06     0
Dec 14 04:53 N 18 4 Fog/Mist OVC005 39 37     93% 30   30.03 30.04 0    
Dec 14 04:50 NNE 15 4 Light Rain and Fog/Mist OVC005 39 37     93% 31   30.03   0    
Dec 14 04:35   2.5 Fog/Mist OVC005 39 37     93%     30.03        
Dec 14 04:20 NNE 16 3 Fog/Mist OVC005 39 37     93% 30   30.02        
Dec 14 03:53 N 11 3 Fog/Mist OVC004 39 38     96% 32   30.02 30.02      
Dec 14 03:48 NNE 15 2.5 Fog/Mist OVC004 39 37     93% 31   30.02        
Dec 14 03:16 N 14 4 Fog/Mist OVC005 40 38     93% 32   30.02        
Dec 14 02:53 N 18 4 Fog/Mist OVC004 40 39     97% 31   30.01 30.02      
Dec 14 01:21 N 16 2.5 Fog/Mist OVC003 40 39     97% 31   29.98        
Dec 14 00:53 N 17 3 Fog/Mist OVC004 40 39     97% 31   29.99 29.99      
Dec 14 00:37 NNE 15 4 Fog/Mist OVC004 40 39     97% 32   29.99        
Dec 13 23:53 N 15 5 Fog/Mist OVC005 41 39     93% 33   29.99 29.99     0
Dec 13 22:53 NNE 15 4 Fog/Mist OVC005 41 39     93% 33   29.97 29.97 0    
Dec 13 22:31 N 15 4 Fog/Mist OVC005 40 39     97% 32   29.97   0    
Dec 13 21:53 N 14 4 Light Rain and Fog/Mist OVC004 40 39     97% 32   29.98 29.98 0    
Dec 13 21:05 N 16 4 Light Rain and Fog/Mist OVC005 40 38     93% 31   29.97   0    
Dec 13 20:53 N 15 4 Light Rain and Fog/Mist OVC004 40 39     97% 32   29.97 29.97 0 0  
Dec 13 19:53 NNW 20 3 Light Rain and Fog/Mist OVC003 41 40     96% 32   29.95 29.96 0    
Dec 13 18:53 NNW 13 3 Light Rain and Fog/Mist OVC004 43 42     97% 36   29.94 29.93 0    
Dec 13 18:02 NNW 17 3 Light Rain and Fog/Mist OVC004 48 46     93% 42   29.91   0    
Dec 13 17:53 NNW 13 2.5 Light Rain and Fog/Mist OVC004 48 47     96% 43   29.9 29.9 0   0
Dec 13 17:42 N 14 2.5 Light Rain and Fog/Mist OVC004 48 47     96% 42   29.9   0    
Dec 13 17:13   4 Light Rain and Fog/Mist OVC006 50 48     93%     29.88   0    
Dec 13 16:53 N 10 4 Light Rain and Fog/Mist OVC004 50 49     96%     29.88 29.87 0    
Dec 13 15:53 N 9 3 Rain and Fog/Mist OVC004 51 50     96%     29.86 29.85 0    
Dec 13 14:53 NNE 9 5 Light Rain and Fog/Mist OVC004 51 50     96%     29.84 29.84 0 0  
Dec 13 13:53 N 8 3 Light Rain and Fog/Mist OVC004 51 50     96%     29.83 29.83 0    
Dec 13 13:22 NNE 7 3 Light Rain and Fog/Mist OVC004 51 50     96%     29.83   0    
Dec 13 13:05 NNE 7 2 Light Rain and Fog/Mist OVC004 51 50     96%     29.83   0    
Dec 13 12:53 NNE 7 2.5 Light Rain and Fog/Mist BKN005 OVC016 51 50     96%     29.83 29.83 0    
Dec 13 11:53 NNE 5 4 Light Rain and Fog/Mist BKN006 OVC017 53 51     93%     29.84 29.83 0   0
Dec 13 11:23 NE 3 6 Fog/Mist FEW006 FEW009 OVC015 53 51     93%     29.84   0    
Dec 13 10:53 E 3 7 Cloudy OVC015 53 51     93%     29.84 29.83 0    
Dec 13 09:53 ESE 6 6 Light Rain and Fog/Mist OVC016 52 51     97%     29.84 29.83 0    
Dec 13 08:53 ESE 6 5 Light Rain and Fog/Mist OVC018 52 50     93%     29.83 29.82 0 0  
Dec 13 07:53 E 6 5 Light Rain and Fog/Mist BKN015 BKN023 OVC033 52 50     93%     29.81 29.8 0    
Dec 13 07:03 SE 7 9 Mostly Cloudy BKN024 BKN036 BKN065 52 49     89%     29.79        
Dec 13 06:53 ESE 7 9 Mostly Cloudy FEW022 SCT038 BKN065 52 48     86%     29.78 29.77      
Dec 13 05:53 ESE 7 8 Cloudy SCT021 OVC060 51 48     89%     29.78 29.77      
Dec 13 05:25 E 6 9 Cloudy SCT022 SCT040 OVC055 52 48     86%     29.78        
Dec 13 04:53 ESE 6 9 Cloudy OVC021 52 48     86%     29.77 29.77      
Dec 13 04:25 ESE 6 9 Cloudy BKN024 OVC055 52 48     86%     29.78        
Dec 13 03:53 SE 7 10 Cloudy FEW020 BKN038 OVC049 53 48     83%     29.77 29.76      
Dec 13 02:53 SE 7 10 Cloudy OVC021 53 48     83%     29.79 29.78      
Dec 13 01:53 SE 7 10 Cloudy BKN021 OVC048 53 48     83%     29.8 29.78      
Dec 13 00:53 ESE 5 10 Cloudy BKN019 BKN024 OVC030 52 47     83%     29.8 29.79      
Dec 13 00:29 SE 6 10 Cloudy BKN021 BKN026 OVC050 52 47     83%     29.8        
Dec 13 00:16 SE 7 10 Cloudy FEW021 SCT028 OVC050 53 48     83%     29.8        
Dec 12 23:53 SSE 10 10 Cloudy BKN020 BKN034 OVC050 53 48     83%     29.8 29.8 0   0
Dec 12 23:01 SSE 8 10 Cloudy BKN022 OVC045 53 47     80%     29.81        
Dec 12 22:53 SSE 8 10 Cloudy SCT022 OVC044 52 47     83%     29.81 29.8      
Dec 12 22:18 SSE 10 10 Cloudy SCT021 SCT035 OVC043 52 46     80%     29.81        
Dec 12 21:53 SSE 8 10 Cloudy BKN022 OVC035 53 46     77%     29.81 29.81      
Dec 12 21:32 SSE 8 10 Cloudy BKN022 OVC035 53 46     77%     29.81        
Dec 12 20:53 SE 9 10 Cloudy OVC033 53 46     77%     29.82 29.82      
Dec 12 20:29 SSE 10 10 Cloudy OVC031 53 46     77%     29.82        
Dec 12 19:53 S 9 10 Cloudy OVC027 53 45     74%     29.83 29.83      
Dec 12 18:53 S 13 10 Cloudy OVC025 53 44     71%     29.84 29.84      
Dec 12 17:53 S 14 10 Cloudy OVC028 54 44     69%     29.84 29.84      
Dec 12 16:53 S 15 10 Partly Cloudy SCT034 55 44     66%     29.83 29.83      
Dec 12 15:53 S 8 10 Clear CLR 58 44     60%     29.83 29.83      
Dec 12 14:53 S 14 10 Clear CLR 59 43     55%     29.84 29.83      
Dec 12 13:53 SSW 14 10 Clear CLR 58 42     55%     29.87 29.86      
Dec 12 12:53 SSW 10 10 Clear CLR 56 41     57%     29.89 29.88      
Dec 12 11:53 SW 8 10 Clear CLR 53 40     61%     29.91 29.91      
Dec 12 10:53 SW 10 10 Clear CLR 51 38     61%     29.96 29.95      
Dec 12 08:53 Calm 10 Clear CLR 39 30     70%     29.99 29.99      
Dec 12 07:53 Calm 10 Clear CLR 32 29     88%     29.98 29.98      
Dec 12 06:53 Calm 10 Clear CLR 35 29     78%     29.97 29.98      
Dec 12 05:53 WNW 5 10 Clear CLR 38 32     79% 34   29.97 29.97      
Dec 12 04:53 W 7 10 Clear CLR 42 34     73% 38   29.96 29.96      
Dec 12 03:53 SW 11 10 Mostly Clear FEW027 47 35     63% 42   29.96 29.95      
Dec 12 02:53 SW 16 10 Clear CLR 49 35     59% 43   29.97 29.96      
Dec 12 01:53 SW 17 10 Clear CLR 50 34     54%     29.96 29.96      
Dec 12 00:53 SW 18 10 Clear CLR 51 34     52%     29.96 29.95      
Dec 11 23:53 SW 21 10 Clear and Windy CLR 52 33     48%     29.97 29.96      
Dec 11 22:53   10 Clear CLR 52 32     46%     29.97 29.96      
Dec 11 21:53   10 Clear CLR 53 31     43%     29.97 29.97      
Dec 11 20:53 SSW 17 10 Clear CLR 53 33     46%     29.97 29.98      
Dec 11 19:53 SSW 17 10 Clear CLR 53 33     46%     29.97 29.98      
Dec 11 18:53 S 14 10 Clear CLR 52 32     46%     29.98 29.98      
Dec 11 17:53 S 16 10 Clear CLR 54 32     43%     29.97 29.97      
Dec 11 16:53   10 Clear CLR 54 32     43%     29.99 29.99      
Dec 11 15:53 SSW 15 10 Clear CLR 57 30     36%     30 30      
Dec 11 14:53 SSW 17 10 Clear CLR 58 31     36%     30.02 30.03      
Dec 11 13:53   10 Clear CLR 58 31     36%     30.05 30.05      
Dec 11 12:53 SSW 21 10 Clear and Windy CLR 56 33     42%     30.09 30.09      
Dec 11 11:53 SW 20 10 Clear and Windy CLR 55 31     40%     30.13 30.14      
Dec 11 10:53 SSW 15 10 Clear CLR 51 30     44%     30.17 30.18      
Dec 11 09:53 SSW 15 10 Clear CLR 46 30     53% 40   30.21 30.22      
Dec 11 08:53 S 11 10 Clear CLR 40 29     65% 33   30.21 30.22      
Dec 11 07:53 SSW 9 10 Clear CLR 32 26     78% 24   30.22 30.24      
Dec 11 06:53 SSW 11 10 Clear CLR 34 25     69% 26   30.23 30.25      
Dec 11 05:53 S 10 10 Clear CLR 29 23     78% 20   30.23 30.25      
Dec 10 20:53 S 5 10 Clear CLR 32 22     66% 27   30.3 30.32      
Dec 10 19:53 S 5 10 Clear CLR 33 23     66% 29   30.3 30.33      
Dec 10 18:53 S 6 10 Clear CLR 32 22     66% 26   30.31 30.34      
Dec 10 17:53 SSW 5 10 Clear CLR 38 23     55% 34   30.3 30.33      
Dec 10 16:53 WSW 5 10 Clear CLR 41 23     48% 38   30.31 30.33      
Dec 10 15:53 WSW 5 10 Clear CLR 45 24     44% 43   30.3 30.32      
Dec 10 14:53 W 5 10 Clear CLR 45 24     44% 43   30.31 30.32      
Dec 10 13:53 W 8 10 Clear CLR 44 24     45% 40   30.32 30.34      
Dec 10 12:53 5 10 Clear CLR 44 23     43% 41   30.33 30.35      
Dec 10 11:53 Calm 10 Clear CLR 42 21     43%     30.35 30.37      
Dec 10 10:53 5 10 Clear CLR 39 21     48% 36   30.37 30.39      
Dec 10 09:53 Calm 10 Clear CLR 35 21     56%     30.38 30.4      
Dec 10 08:53 Calm 10 Haze CLR 28 21     75%     30.37 30.39      
Dec 10 07:53 Calm 10 Clear CLR 19 17     92%     30.36 30.39      
Dec 10 06:53 Calm 10 Clear CLR 19 15     84%     30.36 30.39      
Dec 10 05:53 Calm 10 Clear CLR 19 16     88%     30.33 30.37      
Dec 10 04:53 Calm 6 Fog/Mist CLR 19 17     92%     30.32 30.35      
Dec 10 03:53 Calm 6 Fog/Mist CLR 21 18     88%     30.32 30.34      
Dec 10 02:53 Calm 7 Clear CLR 22 18     84%     30.33 30.35      
Dec 10 01:53 Calm 8 Clear CLR 23 18     81%     30.32 30.35      
Dec 10 00:53 Calm 6 Fog/Mist CLR 22 18     84%     30.32 30.35      
Dec 09 23:53 Calm 6 Fog/Mist CLR 21 17     84%     30.33 30.36      
Dec 09 22:53 Calm 9 Clear CLR 22 17     81%     30.34 30.37      
Dec 09 21:53 Calm 10 Clear CLR 23 16     74%     30.34 30.37      
Dec 09 20:53 Calm 9 Clear CLR 28 18     65%     30.33 30.37      
Dec 09 19:53 Calm 10 Clear CLR 28 18     65%     30.34 30.37      
Dec 09 18:53 NNE 5 10 Clear CLR 29 18     63% 24   30.33 30.36      
Dec 09 17:53 NNE 5 10 Clear CLR 31 18     58% 26   30.33 30.36      
Dec 09 16:53 N 5 10 Clear CLR 33 18     53% 29   30.32 30.35      
Dec 09 15:53 N 6 10 Clear CLR 37 19     48% 32   30.32 30.34      
Dec 09 14:53 N 8 10 Clear CLR 38 19     46% 32   30.31 30.33      
Dec 09 13:53 NNW 6 10 Clear CLR 37 20     50% 32   30.32 30.34      
Dec 09 12:53 N 9 10 Clear CLR 35 21     56% 28   30.34 30.36      
Dec 09 11:53 N 7 10 Clear CLR 33 21     61% 27   30.35 30.38      
Dec 09 10:53 N 7 9 Clear CLR 30 21     69% 23   30.38 30.4      
Dec 09 09:53 NNE 6 7 Clear CLR 27 21     78% 20   30.38 30.4      
Dec 09 08:53 NE 7 6 Fog/Mist CLR 22 19     88% 13   30.36 30.39      
Dec 09 07:53 N 6 5 Fog/Mist CLR 19 17     92% 11   30.35 30.38      
Dec 09 06:53 Calm 7 Clear CLR 17 15     92%     30.34 30.37      
Dec 09 05:53 Calm 7 Clear CLR 18 16     92%     30.33 30.36      
Dec 09 04:53 N 5 7 Clear CLR 19 16     88% 12   30.32 30.34      
Dec 09 03:53 NE 5 9 Clear CLR 22 18     84% 16   30.32 30.35      
Dec 09 02:53 NNE 6 10 Clear CLR 22 19     88% 14   30.33 30.35      
Dec 09 01:53 NNE 7 10 Clear CLR 24 19     81% 16   30.33 30.35      
Dec 09 00:53 NE 7 10 Clear CLR 26 20     77% 18   30.32 30.35      
Dec 08 23:53 NE 8 10 Clear CLR 28 20     71% 20   30.33 30.36      
Dec 08 22:53 NE 8 10 Partly Cloudy SCT033 29 21     72% 21   30.33 30.36      
Dec 08 21:53 NE 9 10 Cloudy SCT029 OVC034 32 20     61% 24   30.35 30.37      
Dec 08 20:53 NE 8 10 Cloudy OVC031 33 21     61% 26   30.35 30.37      
Dec 08 19:53 NE 9 10 Cloudy OVC031 33 20     58% 25   30.34 30.37      
Dec 08 18:53 NE 7 10 Mostly Cloudy BKN060 34 19     54% 28   30.34 30.36      
Dec 08 17:53 ENE 7 10 Cloudy OVC060 35 19     52% 29   30.33 30.35      
Dec 08 16:53 NE 10 10 Cloudy OVC060 37 18     46% 30   30.32 30.35      
Dec 08 15:53 NE 13 10 Cloudy OVC060 37 20     50% 29   30.31 30.33      
Dec 08 14:53 ENE 10 10 Cloudy OVC060 39 23     52% 32   30.31 30.33      
Dec 08 13:53 NE 11 8 Cloudy OVC075 37 23     56% 29   30.32 30.35      
Dec 08 12:53 NE 11 8 Mostly Clear FEW080 37 24     59% 29   30.35 30.37      
Dec 08 11:53 ENE 9 7 Clear CLR 36 23     59% 29   30.37 30.39      
Dec 08 10:53 NE 14 10 Clear   33 23     66% 23   30.39 30.42      
Dec 08 09:53 ENE 10 6 Fog/Mist CLR 30 23     75% 21   30.41 30.43      
Dec 08 08:53 NE 10 6 Fog/Mist CLR 28 23     81% 19   30.41 30.43      
Dec 08 07:53 NE 10 6 Fog/Mist CLR 27 22     81% 17   30.4 30.43      
Dec 08 06:53 NE 10 10 Clear CLR 27 22     81% 17   30.39 30.41      
Dec 08 05:53 NE 11 10 Clear CLR 27 22     81% 17   30.41 30.43      
Dec 08 04:53 NE 10 7 Clear CLR 27 23     85% 17   30.42 30.44      
Dec 08 03:53 NE 9 7 Clear CLR 27 23     85% 18   30.43 30.46      
Dec 08 02:53 NE 9 7 Clear CLR 27 23     85% 18   30.42 30.44      
Dec 08 01:53 NE 8 7 Clear CLR 28 24     85% 20   30.44 30.46      
Dec 08 00:53 NE 8 8 Clear CLR 28 24     85% 20   30.43 30.45      
Dec 08 00:00 NE 9 8 Mostly Clear FEW012 29 24     82% 20   30.43        
Dec 07 23:53 NE 8 8 Mostly Cloudy BKN013 29 24     82% 21   30.44 30.46      
Dec 07 23:15 NNE 9 9 Cloudy OVC014 32 26     78% 24   30.44        
Dec 07 22:53 NE 8 9 Cloudy OVC015 32 26     78% 25   30.44 30.46      
Dec 07 21:53 NE 9 10 Cloudy OVC016 32 27     81% 24   30.44 30.47      
Dec 07 20:53 ENE 9 10 Cloudy OVC017 32 27     81% 24   30.44 30.47      
Dec 07 19:53 NE 9 9 Cloudy OVC018 32 26     78% 24   30.44 30.47      
Dec 07 17:53 NE 9 9 Cloudy OVC016 33 27     78% 25   30.43 30.45      
Dec 07 16:53 NE 8 8 Cloudy OVC017 34 28     79% 27   30.44 30.46      
Dec 07 15:53 NNE 9 7 Fog/Mist OVC017 35 28     75% 28   30.4 30.43      
Dec 07 14:53 NE 8 7 Fog/Mist OVC017 36 28     73% 30   30.4 30.42      
Dec 07 13:53 NNE 8 6 Fog/Mist OVC017 35 28     75% 29   30.41 30.44      
Dec 07 12:53 NNE 9 6 Fog/Mist OVC015 35 28     75% 28   30.43 30.45      
Dec 07 11:53 NNE 7 5 Fog/Mist OVC014 34 28     79% 28   30.45 30.47      
Dec 07 10:53 ENE 6 5 Fog/Mist OVC011 32 27     81% 26   30.47 30.49      
Dec 07 09:53 NE 9 6 Haze OVC011 31 26     82% 23   30.48 30.5      
May 15 06:53 NNW 6 10 Clear CLR 61 60     97%     29.92 29.89     1
May 14 05:53 S 10 10 Clear CLR 69 63     81%     29.95 29.92      
May 13 10:53   10 Clear CLR 80 68     67%   83 30.03 30      
May 12 18:53 S 17 10 Clear CLR 81 65     58%   83 29.91 29.88      
May 12 08:53 S 11 10 Clear CLR 74 64     71%   74 29.96 29.93      
May 12 00:53 SSE 8 10 Clear CLR 70 61     73%     29.89 29.86      
Jun 12 01:53 S 9 10 Clear CLR 73 65     76%   74 29.92 29.88      
Jun 11 21:53 S 10 10 Clear CLR 79 65     62%   80 29.9 29.86      
Jun 11 11:53   10 Partly Cloudy SCT032 84 71     65%   89 29.94 29.9      
Jun 11 10:53   10 Clear CLR 83 70     65%   87 29.93 29.89      
Jun 10 19:53 S 15 10 Clear CLR 81 67     62%   83 29.83 29.79      
Jun 10 17:53   10 Clear CLR 85 68     57%   88 29.82 29.79      
Jun 10 11:53   10 Clear CLR 82 67     60%   85 29.9 29.86      
Jun 09 14:53 S 13 10 Partly Cloudy SCT055 80 61     52%   81 29.91 29.89      
Jun 09 00:53 SE 3 10 Clear CLR 60 55     83%     29.94 29.91      
Jun 08 23:53 S 3 10 Clear   62 56     80%     29.94 29.92      
Jun 08 12:53 WNW 5 10 Clear CLR 79 53     41%   78 30.05 30.03      
Jun 08 06:53 Calm 10 Clear CLR 56 53     90%     30.06 30.04      
Jun 07 21:53 Calm 10 Clear CLR 64 56     75%     30.05 30.02      
Jun 07 14:53 NNE 9 10 Clear CLR 81 52     37%   80 30.06 30.03      
Jun 07 11:53 E 9 10 Mostly Clear FEW060 79 49     35%   78 30.09 30.07      
Jun 06 11:53 N 5 10 Clear CLR 82 64     55%   84 29.96 29.93      
Jun 06 10:53 N 5 10 Clear CLR 79 66     65%   80 29.96 29.92      
Notice The following observation data may not be complete
Jun 06 04:02   2 Fog/Mist CLR          %              
Jun 05 19:53 Calm 10 Mostly Cloudy BKN075 84 70     63%   88 29.83 29.79